Wenatchee, WA

5:58 PM PDT on July 24, 2017 (GMT -0700)
Pangborn Memorial

Weather History for KEAT - August, 2014

Change the Weather History Date:

Wednesday, August 6, 2014

  Actual Average Record
Temperature  
Mean Temperature 74 °F 68 °F  
Max Temperature 89 °F 85 °F 103 °F (1972)
Min Temperature 59 °F 52 °F 50 °F (2002)
Degree Days  
Heating Degree Days 0 1  
Month to date heating degree days 0 6  
Since 1 June heating degree days 203 245  
Since 1 July heating degree days 12 58  
Cooling Degree Days 9 5  
Month to date cooling degree days 66 30  
Year to date cooling degree days 310 159  
Since 1 June cooling degree days 310 154  
Growing Degree Days 34 (Base 50)    
Moisture  
Dew Point 41 °F    
Average Humidity 25    
Maximum Humidity 38    
Minimum Humidity 12    
Precipitation  
Precipitation 0.00 in 0.01 in 0.96 in (1976)
Month to date precipitation 0.00 0.06  
Year to date precipitation 11.39 10.01  
Snow  
Snow 0.00 in 0.00 in - ()
Month to date snowfall 0.0 0.0  
Since 1 June snowfall 0.0 0.0  
Since 1 July snowfall 0.0 0.0  
Snow Depth 0.00 in    
Sea Level Pressure  
Sea Level Pressure 29.90 in    
Wind  
Wind Speed 18 mph (WNW)    
Max Wind Speed 22 mph    
Max Gust Speed 29 mph    
Visibility 10 miles    
Events      
T = Trace of Precipitation, MM = Missing Value Source: NWS Daily Summary

Daily Weather History Graph

Daily Weather History Graph

Search for Another Location

Airport or City:

Trip Planner

Search our weather history database for the weather conditions in past years. The results will help you decide how hot, cold, wet, or windy it might be!

Date:

Astronomy

Aug. 06, 2014 Rise Set
Actual Time 5:45 AM PDT 8:27 PM PDT
Civil Twilight 5:10 AM PDT 9:01 PM PDT
Nautical Twilight 4:25 AM PDT 9:46 PM PDT
Astronomical Twilight 3:33 AM PDT 10:37 PM PDT
Moon 4:52 PM PDT (8/6) 1:22 AM PDT (8/6)
Length of Visible Light 15h 51m
Length of Day
14h 41m
Waxing Gibbous, 78% of the Moon is Illuminated
Aug 6
Waxing Gibbous
Aug 10
Full
Aug 17
Last Quarter
Aug 25
New
Sep 2
First Quarter

Hourly Weather History & Observations

Time (PDT) Temp. Dew Point Humidity Pressure Visibility Wind Dir Wind Speed Gust Speed Precip Events Conditions
12:55 AM 77.0 °F 39.0 °F 25% 29.88 in 10.0 mi WNW 17.3 mph - N/A   Scattered Clouds
1:55 AM 75.9 °F 37.0 °F 24% 29.89 in 10.0 mi WNW 19.6 mph - N/A   Clear
2:55 AM 75.0 °F 37.9 °F 26% 29.91 in 10.0 mi WNW 17.3 mph - N/A   Clear
3:55 AM 73.0 °F 37.9 °F 28% 29.92 in 10.0 mi WNW 20.7 mph - N/A   Clear
4:55 AM 73.0 °F 39.0 °F 29% 29.93 in 10.0 mi WNW 12.7 mph - N/A   Clear
5:55 AM 72.0 °F 42.1 °F 34% 29.93 in 10.0 mi WNW 15.0 mph - N/A   Clear
6:55 AM 72.0 °F 45.0 °F 38% 29.95 in 10.0 mi WNW 13.8 mph - N/A   Clear
7:55 AM 75.0 °F 46.9 °F 37% 29.96 in 10.0 mi NW 18.4 mph - N/A   Clear
8:55 AM 78.1 °F 46.9 °F 33% 29.95 in 10.0 mi WNW 16.1 mph - N/A   Clear
9:55 AM 81.0 °F 46.0 °F 29% 29.94 in 10.0 mi WNW 17.3 mph 23.0 mph N/A   Clear
10:55 AM 84.9 °F 46.9 °F 27% 29.93 in 10.0 mi WNW 17.3 mph - N/A   Clear
11:55 AM 88.0 °F 45.0 °F 22% 29.91 in 10.0 mi NW 21.9 mph - N/A   Clear
12:55 PM 91.0 °F 43.0 °F 19% 29.90 in 10.0 mi WNW 20.7 mph - N/A   Clear
1:55 PM 91.9 °F 39.9 °F 16% 29.89 in 10.0 mi WNW 19.6 mph - N/A   Partly Cloudy
2:55 PM 93.9 °F 37.0 °F 14% 29.86 in 10.0 mi WNW 17.3 mph - N/A   Clear
3:55 PM 95.0 °F 37.0 °F 13% 29.85 in 10.0 mi WNW 18.4 mph - N/A   Clear
4:55 PM 93.9 °F 34.0 °F 12% 29.83 in 10.0 mi WNW 21.9 mph - N/A   Clear
5:55 PM 93.0 °F 33.1 °F 12% 29.83 in 10.0 mi WNW 20.7 mph 28.8 mph N/A   Clear
6:55 PM 89.1 °F 37.0 °F 16% 29.84 in 10.0 mi WNW 20.7 mph - N/A   Clear
7:55 PM 84.9 °F 43.0 °F 23% 29.85 in 10.0 mi WNW 18.4 mph - N/A   Clear
9:55 PM 78.1 °F 46.0 °F 32% 29.88 in 10.0 mi WNW 13.8 mph 23.0 mph N/A   Clear
10:55 PM 75.9 °F 45.0 °F 33% 29.89 in 10.0 mi WNW 13.8 mph - N/A   Clear
11:55 PM 75.0 °F 46.0 °F 36% 29.90 in 10.0 mi WNW 15.0 mph - N/A   Clear